When you browse on this site, cookies collect data to enhance your experience and personalize the content and advertising you see.
Visit our Privacy Policy to learn more. By continuing to use the site, you agree to this use of cookies and data.
  • In Hungary
  • List of Countries
  • For 7 days
  • Water Temperature
  • Satellite Maps
  • Weather Map
  • News
  • Weather Widgets
  • user-avatar
    Login

    Hourly Weather Buzovna

    Today, 20 March, Wednesday

    Time Temperature Precipitation Wind Pressure Humidity
    00:00 +3°C° 1 mm 11 mps 769 mmHg 82%
    01:00 +3°C° 1 mm 11 mps 768 mmHg 82%
    02:00 +3°C° 1 mm 11 mps 768 mmHg 83%
    03:00 +3°C° 0 mm 9 mps 767 mmHg 82%
    04:00 +3°C° 0.8 mm 9 mps 768 mmHg 82%
    05:00 +3°C° 0.8 mm 9 mps 768 mmHg 81%
    06:00 +3°C° 0.8 mm 10 mps 768 mmHg 81%
    07:00 +3°C° 0.4 mm 10 mps 768 mmHg 80%
    08:00 +3°C° 0.4 mm 9 mps 768 mmHg 80%
    09:00 +3°C° 0 mm 9 mps 768 mmHg 79%
    10:00 +5°C° 0.1 mm 9 mps 768 mmHg 78%
    11:00 +5°C° 0.1 mm 9 mps 768 mmHg 78%
    12:00 +5°C° 0.1 mm 9 mps 768 mmHg 77%
    13:00 +5°C° 0 mm 9 mps 768 mmHg 76%
    14:00 +6°C° 0 mm 9 mps 768 mmHg 75%
    15:00 +5°C° 0 mm 9 mps 767 mmHg 77%
    16:00 +5°C° 0.1 mm 9 mps 767 mmHg 78%
    17:00 +5°C° 0.1 mm 8 mps 767 mmHg 80%
    18:00 +5°C° 0.1 mm 8 mps 768 mmHg 82%
    19:00 +5°C° 0.1 mm 8 mps 768 mmHg 82%
    20:00 +5°C° 0.1 mm 7 mps 768 mmHg 82%
    21:00 +5°C° 0.1 mm 6 mps 768 mmHg 82%
    22:00 +5°C° 0 mm 6 mps 768 mmHg 82%
    23:00 +5°C° 0 mm 6 mps 768 mmHg 82%

    Tomorrow, 21 March, Thursday

    Time Temperature Precipitation Wind Pressure Humidity
    00:00 +5°C° 0 mm 6 mps 768 mmHg 81%
    01:00 +6°C° 0 mm 5 mps 767 mmHg 81%
    02:00 +6°C° 0 mm 5 mps 767 mmHg 81%
    03:00 +6°C° 0 mm 5 mps 767 mmHg 81%
    04:00 +6°C° 0 mm 4 mps 767 mmHg 80%
    05:00 +6°C° 0 mm 4 mps 767 mmHg 80%
    06:00 +6°C° 0 mm 4 mps 767 mmHg 80%
    07:00 +7°C° 0 mm 4 mps 768 mmHg 78%
    08:00 +8°C° 0 mm 3 mps 768 mmHg 76%
    09:00 +8°C° 0 mm 3 mps 768 mmHg 74%
    10:00 +9°C° 0 mm 3 mps 768 mmHg 73%
    11:00 +9°C° 0 mm 3 mps 768 mmHg 71%
    12:00 +10°C° 0 mm 2 mps 768 mmHg 69%
    13:00 +10°C° 0 mm 2 mps 768 mmHg 69%
    14:00 +10°C° 0 mm 2 mps 768 mmHg 68%
    15:00 +10°C° 0 mm 2 mps 767 mmHg 68%
    16:00 +10°C° 0 mm 2 mps 767 mmHg 69%
    17:00 +10°C° 0 mm 2 mps 767 mmHg 70%
    18:00 +11°C° 0 mm 1 mps 767 mmHg 71%
    19:00 +11°C° 0 mm 1 mps 767 mmHg 73%
    20:00 +10°C° 0 mm 1 mps 767 mmHg 75%
    21:00 +10°C° 0 mm 1 mps 768 mmHg 76%
    22:00 +11°C° 0 mm 1 mps 767 mmHg 77%
    23:00 +10°C° 0 mm 2 mps 767 mmHg 79%

    Day after tomorrow, 22 March, Friday

    Time Temperature Precipitation Wind Pressure Humidity
    00:00 +10°C° 0 mm 2 mps 767 mmHg 80%
    01:00 +10°C° 0 mm 3 mps 767 mmHg 81%
    02:00 +10°C° 0 mm 3 mps 767 mmHg 81%
    03:00 +10°C° 0 mm 3 mps 766 mmHg 82%
    04:00 +9°C° 0 mm 3 mps 766 mmHg 82%
    05:00 +9°C° 0 mm 3 mps 766 mmHg 83%
    06:00 +9°C° 0 mm 3 mps 767 mmHg 83%
    07:00 +10°C° 0 mm 3 mps 767 mmHg 79%
    08:00 +11°C° 0 mm 3 mps 767 mmHg 75%
    09:00 +12°C° 0 mm 3 mps 767 mmHg 71%
    10:00 +12°C° 0 mm 3 mps 767 mmHg 67%
    11:00 +13°C° 0 mm 3 mps 767 mmHg 64%
    12:00 +14°C° 0 mm 2 mps 766 mmHg 61%
    13:00 +15°C° 0 mm 2 mps 766 mmHg 60%
    14:00 +15°C° 0 mm 2 mps 766 mmHg 59%
    15:00 +15°C° 0 mm 2 mps 765 mmHg 59%
    16:00 +14°C° 0 mm 2 mps 765 mmHg 61%
    17:00 +14°C° 0 mm 2 mps 765 mmHg 64%
    18:00 +13°C° 0 mm 2 mps 765 mmHg 67%
    19:00 +11°C° 0 mm 4 mps 766 mmHg 70%
    20:00 +9°C° 0 mm 5 mps 766 mmHg 72%
    21:00 +9°C° 0 mm 6 mps 767 mmHg 75%
    22:00 +9°C° 0 mm 6 mps 767 mmHg 78%
    23:00 +8°C° 0 mm 7 mps 767 mmHg 81%

    23 March, Saturday

    Time Temperature Precipitation Wind Pressure Humidity
    00:00 +8°C° 0 mm 7 mps 767 mmHg 85%
    01:00 +8°C° 0.1 mm 7 mps 767 mmHg 83%
    02:00 +8°C° 0.1 mm 6 mps 766 mmHg 82%
    03:00 +7°C° 0.1 mm 5 mps 766 mmHg 80%
    04:00 +7°C° 0.3 mm 4 mps 766 mmHg 80%
    05:00 +8°C° 0.3 mm 2 mps 766 mmHg 80%
    06:00 +9°C° 0.3 mm 1 mps 766 mmHg 80%
    07:00 +9°C° 0 mm 2 mps 766 mmHg 78%
    08:00 +10°C° 0 mm 4 mps 765 mmHg 76%
    09:00 +9°C° 0 mm 5 mps 765 mmHg 73%
    10:00 +10°C° 0 mm 6 mps 764 mmHg 70%
    11:00 +11°C° 0 mm 7 mps 764 mmHg 68%
    12:00 +12°C° 0 mm 8 mps 763 mmHg 65%
    13:00 +12°C° 0 mm 8 mps 762 mmHg 64%
    14:00 +12°C° 0 mm 9 mps 761 mmHg 63%
    15:00 +13°C° 0 mm 9 mps 760 mmHg 62%
    16:00 +12°C° 0 mm 10 mps 760 mmHg 65%
    17:00 +12°C° 0 mm 10 mps 760 mmHg 67%
    18:00 +11°C° 0 mm 10 mps 759 mmHg 70%
    19:00 +11°C° 0 mm 10 mps 759 mmHg 71%
    20:00 +11°C° 0 mm 10 mps 760 mmHg 73%
    21:00 +11°C° 0 mm 10 mps 760 mmHg 74%
    22:00 +11°C° 0 mm 10 mps 759 mmHg 73%
    23:00 +11°C° 0 mm 9 mps 759 mmHg 72%

    24 March, Sunday

    Time Temperature Precipitation Wind Pressure Humidity
    00:00 +11°C° 0 mm 9 mps 759 mmHg 70%
    01:00 +10°C° 0 mm 8 mps 759 mmHg 72%
    02:00 +9°C° 0 mm 8 mps 759 mmHg 74%
    03:00 +9°C° 0 mm 7 mps 759 mmHg 76%
    04:00 +7°C° 0 mm 9 mps 760 mmHg 77%
    05:00 +5°C° 0 mm 12 mps 760 mmHg 77%
    06:00 +4°C° 0 mm 14 mps 761 mmHg 78%
    07:00 +4°C° 0 mm 15 mps 762 mmHg 75%
    08:00 +5°C° 0 mm 15 mps 762 mmHg 73%
    09:00 +5°C° 0 mm 15 mps 763 mmHg 71%
    10:00 +5°C° 0 mm 15 mps 763 mmHg 70%
    11:00 +5°C° 0 mm 15 mps 763 mmHg 69%
    12:00 +5°C° 0 mm 15 mps 764 mmHg 68%
    13:00 +5°C° 0 mm 15 mps 764 mmHg 68%
    14:00 +5°C° 0 mm 15 mps 764 mmHg 68%
    15:00 +5°C° 0 mm 14 mps 764 mmHg 68%
    16:00 +4°C° 0 mm 14 mps 764 mmHg 67%
    17:00 +4°C° 0 mm 13 mps 764 mmHg 67%
    18:00 +4°C° 0 mm 12 mps 765 mmHg 66%
    19:00 +4°C° 0 mm 12 mps 765 mmHg 64%
    20:00 +4°C° 0 mm 11 mps 765 mmHg 62%
    21:00 +5°C° 0 mm 10 mps 766 mmHg 60%
    22:00 +5°C° 0 mm 10 mps 766 mmHg 58%
    23:00 +5°C° 0 mm 9 mps 766 mmHg 57%

    25 March, Monday

    Time Temperature Precipitation Wind Pressure Humidity
    00:00 +5°C° 0 mm 9 mps 766 mmHg 55%
    01:00 +5°C° 0 mm 8 mps 766 mmHg 55%
    02:00 +5°C° 0 mm 7 mps 766 mmHg 55%
    03:00 +6°C° 0 mm 7 mps 766 mmHg 55%
    04:00 +5°C° 0 mm 6 mps 766 mmHg 56%
    05:00 +5°C° 0 mm 6 mps 766 mmHg 57%
    06:00 +5°C° 0 mm 6 mps 767 mmHg 58%
    07:00 +7°C° 0 mm 5 mps 767 mmHg 55%
    08:00 +7°C° 0 mm 4 mps 768 mmHg 52%
    09:00 +9°C° 0 mm 2 mps 768 mmHg 49%
    10:00 +9°C° 0 mm 3 mps 768 mmHg 48%
    11:00 +10°C° 0 mm 3 mps 767 mmHg 46%
    12:00 +11°C° 0 mm 3 mps 767 mmHg 45%
    13:00 +11°C° 0 mm 4 mps 767 mmHg 45%
    14:00 +10°C° 0 mm 5 mps 767 mmHg 45%
    15:00 +11°C° 0 mm 7 mps 767 mmHg 45%
    16:00 +10°C° 0 mm 7 mps 767 mmHg 49%
    17:00 +10°C° 0 mm 7 mps 767 mmHg 53%
    18:00 +9°C° 0 mm 8 mps 767 mmHg 57%
    19:00 +9°C° 0 mm 7 mps 767 mmHg 59%
    20:00 +9°C° 0 mm 7 mps 768 mmHg 62%
    21:00 +9°C° 0 mm 7 mps 768 mmHg 64%
    22:00 +8°C° 0 mm 6 mps 768 mmHg 66%
    23:00 +8°C° 0 mm 6 mps 768 mmHg 68%
    Show more